{"data":{"norad_id":47935,"intl_designator":"2021-022D","name":"GRUS-1E","alt_names":[],"object_type":"PAYLOAD","status":"ACTIVE","operator":null,"country":"JPN","launch_date":"2021-03-22","launch_site_code":"TYMSC","launch_vehicle":null,"mission":null,"orbit_class":"UNKNOWN","rcs_meters":null,"size_class":null,"mass_kg":null,"dimensions":null,"purposes":[],"wikipedia_slug":null,"has_3d_model":false,"image_url":null,"decayed_at":null,"tle_current":{"epoch":"2026-05-25T04:14:52.463040Z","epoch_age_seconds":56931,"freshness":"FRESH","line1":"1 47935U 21022D   26145.17699610  .00001288  00000+0  10994-3 0  9996","line2":"2 47935  97.5467  30.3187 0014417  46.4093 313.8324 14.99310746282508","mean_motion":14.99310746,"eccentricity":0.0014417,"inclination_deg":97.5467,"raan_deg":30.3187,"arg_perigee_deg":46.4093,"mean_anomaly_deg":313.8324,"bstar":0.00010994,"rev_number":28250,"period_min":96.044132535018,"perigee_km":559.00894523376,"apogee_km":579.04039118788,"semimajor_km":6947.1616682108,"source":"CELESTRAK","updated_at":"2026-05-25T13:37:56.626627Z"}}}